| time (UTC) | temp C | wind direction | speed KPH | gust KPH | rain 1hr cm | rain 24hr cm | rain mn cm | humidity % | barometer mb |
| 20260902143015 | 17 | 293 | 19.3 | 29.0 | 0.00 | 0.08 | 0.08 | 40 | 1010.0 |
| 20260902141519 | 17 | 261 | 17.7 | 30.6 | 0.00 | 0.08 | 0.08 | 43 | 1010.0 |
| 20260902140016 | 17 | 269 | 16.1 | 35.4 | 0.00 | 0.08 | 0.08 | 41 | 1009.9 |
| 20260902134523 | 17 | 236 | 14.5 | 33.8 | 0.00 | 0.08 | 0.08 | 41 | 1010.0 |
| 20260902133010 | 17 | 279 | 14.5 | 37.0 | 0.00 | 0.08 | 0.08 | 45 | 1009.8 |
| 20260902131511 | 17 | 282 | 12.9 | 32.2 | 0.00 | 0.08 | 0.08 | 47 | 1009.9 |
| 20260902130012 | 17 | 286 | 17.7 | 32.2 | 0.00 | 0.08 | 0.08 | 49 | 1010.0 |
| 20260902124509 | 16 | 281 | 19.3 | 32.2 | 0.00 | 0.08 | 0.08 | 54 | 1010.2 |
| 20260902123009 | 16 | 216 | 22.5 | 35.4 | 0.00 | 0.08 | 0.08 | 51 | 1010.0 |
| 20260902121508 | 17 | 252 | 19.3 | 30.6 | 0.00 | 0.08 | 0.08 | 51 | 1010.0 |
| 20260902120009 | 16 | 323 | 14.5 | 27.4 | 0.03 | 0.08 | 0.08 | 56 | 1009.8 |
| 20260902114510 | 16 | 252 | 14.5 | 27.4 | 0.03 | 0.08 | 0.08 | 60 | 1010.1 |
| 20260902113023 | 14 | 270 | 9.7 | 17.7 | 0.03 | 0.08 | 0.08 | 67 | 1010.3 |
| 20260902111516 | 15 | 289 | 12.9 | 38.6 | 0.03 | 0.08 | 0.08 | 68 | 1010.4 |
| 20260902110010 | 15 | 273 | 16.1 | 29.0 | 0.00 | 0.05 | 0.05 | 63 | 1010.2 |
| 20260902104510 | 15 | 305 | 6.4 | 20.9 | 0.00 | 0.05 | 0.05 | 69 | 1010.1 |
| 20260902103023 | 15 | 300 | 9.7 | 35.4 | 0.00 | 0.05 | 0.05 | 72 | 1010.4 |
| 20260902101513 | 15 | 212 | 14.5 | 27.4 | 0.00 | 0.05 | 0.05 | 67 | 1010.1 |
| 20260902100016 | 14 | 242 | 19.3 | 35.4 | 0.00 | 0.05 | 0.05 | 67 | 1010.5 |
| 20260902094510 | 15 | 266 | 14.5 | 29.0 | 0.00 | 0.05 | 0.05 | 64 | 1010.2 |
| 20260902093009 | 15 | 242 | 16.1 | 24.1 | 0.00 | 0.05 | 0.05 | 63 | 1010.2 |
| 20260902091511 | 15 | 230 | 9.7 | 19.3 | 0.00 | 0.05 | 0.05 | 63 | 1010.2 |
| 20260902090009 | 15 | 240 | 4.8 | 20.9 | 0.00 | 0.05 | 0.05 | 65 | 1010.1 |
| 20260902084513 | 15 | 249 | 11.3 | 25.7 | 0.00 | 0.05 | 0.05 | 67 | 1010.1 |
| 20260902083009 | 15 | 236 | 3.2 | 19.3 | 0.00 | 0.05 | 0.05 | 71 | 1010.1 |
| 20260902081510 | 13 | 177 | 11.3 | 20.9 | 0.00 | 0.05 | 0.05 | 74 | 1010.1 |
| 20260902074509 | 13 | 235 | 4.8 | 16.1 | 0.00 | 0.05 | 0.05 | 77 | 1010.0 |
| 20260902073009 | 13 | 234 | 4.8 | 14.5 | 0.00 | 0.05 | 0.05 | 78 | 1009.9 |
| 20260902071511 | 12 | 192 | 3.2 | 19.3 | 0.00 | 0.05 | 0.05 | 82 | 1009.8 |
| 20260902070012 | 11 | 188 | 3.2 | 12.9 | 0.00 | 0.05 | 0.05 | 87 | 1010.0 |
| 20260902064509 | 11 | 188 | 3.2 | 11.3 | 0.00 | 0.05 | 0.05 | 89 | 1010.0 |
| 20260902063010 | 11 | 171 | 4.8 | 9.7 | 0.00 | 0.05 | 0.05 | 90 | 1009.8 |
| 20260902061509 | 10 | 171 | 8.0 | 12.9 | 0.00 | 0.05 | 0.05 | 91 | 1009.6 |
| 20260902060010 | 10 | 165 | 4.8 | 9.7 | 0.00 | 0.05 | 0.05 | 91 | 1009.5 |
| 20260902054510 | 10 | 165 | 1.6 | 4.8 | 0.00 | 0.05 | 0.05 | 92 | 1009.3 |
| 20260902053011 | 10 | 165 | 1.6 | 9.7 | 0.00 | 0.05 | 0.05 | 93 | 1009.6 |
| 20260902051514 | 10 | 166 | 4.8 | 9.7 | 0.00 | 0.05 | 0.05 | 93 | 1009.7 |
| 20260902050009 | 10 | 228 | 0.0 | 1.6 | 0.00 | 0.05 | 0.05 | 92 | 1009.5 |
| 20260902044510 | 10 | 228 | 0.0 | 3.2 | 0.00 | 0.05 | 0.05 | 91 | 1009.5 |
| 20260902041511 | 10 | 228 | 3.2 | 6.4 | 0.00 | 0.05 | 0.05 | 89 | 1009.4 |
| 20260902040009 | 10 | 228 | 1.6 | 4.8 | 0.00 | 0.05 | 0.05 | 87 | 1009.5 |
| 20260902034509 | 11 | 228 | 3.2 | 6.4 | 0.00 | 0.05 | 0.05 | 85 | 1009.5 |
| 20260902033009 | 11 | 241 | 4.8 | 11.3 | 0.00 | 0.05 | 0.05 | 85 | 1009.3 |
| 20260902031510 | 11 | 298 | 1.6 | 6.4 | 0.00 | 0.05 | 0.05 | 85 | 1009.1 |
| 20260902030011 | 11 | 300 | 0.0 | 6.4 | 0.00 | 0.05 | 0.05 | 85 | 1009.1 |
| 20260902024509 | 11 | 299 | 1.6 | 12.9 | 0.00 | 0.05 | 0.05 | 85 | 1008.9 |
| 20260902021509 | 12 | 225 | 6.4 | 12.9 | 0.00 | 0.05 | 0.05 | 87 | 1009.0 |
| 20260902014527 | 12 | 221 | 4.8 | 9.7 | 0.00 | 0.05 | 0.05 | 96 | 1008.7 |
| 20260902013009 | 12 | 170 | 1.6 | 4.8 | 0.00 | 0.05 | 0.05 | 96 | 1008.4 |
| 20260902011520 | 12 | 171 | 1.6 | 6.4 | 0.00 | 0.05 | 0.05 | 96 | 1008.3 |
| 20260902004510 | 12 | 171 | 3.2 | 9.7 | 0.03 | 0.05 | 0.05 | 96 | 1008.4 |
| 20260902003012 | 12 | 176 | 4.8 | 6.4 | 0.05 | 0.05 | 0.05 | 95 | 1008.4 |
| 20260902001514 | 12 | 176 | 0.0 | 0.0 | 0.05 | 0.05 | 0.05 | 95 | 1008.3 |
| 20260902000011 | 12 | 176 | 0.0 | 0.0 | 0.03 | 0.05 | 0.05 | 94 | 1008.6 |
| 20260901234509 | 12 | 176 | 0.0 | 0.0 | 0.03 | 0.05 | 0.05 | 94 | 1008.6 |
| 20260901233010 | 12 | 176 | 0.0 | 0.0 | 0.00 | 0.03 | 0.03 | 93 | 1008.7 |
| 20260901231510 | 12 | 176 | 0.0 | 0.0 | 0.00 | 0.03 | 0.03 | 93 | 1008.8 |
| 20260901230010 | 12 | 176 | 0.0 | 0.0 | 0.03 | 0.03 | 0.03 | 92 | 1009.0 |
| 20260901223011 | 12 | 176 | 3.2 | 6.4 | 0.03 | 0.03 | 0.03 | 91 | 1009.0 |
| 20260901221510 | 12 | 176 | 1.6 | 9.7 | 0.03 | 0.03 | 0.03 | 88 | 1009.3 |
| 20260901220009 | 12 | 175 | 8.0 | 11.3 | 0.00 | 0.00 | 0.00 | 84 | 1009.5 |
| 20260901214528 | 12 | 178 | 6.4 | 9.7 | 0.00 | 0.00 | 0.00 | 81 | 1009.4 |
| 20260901213009 | 12 | 237 | 0.0 | 4.8 | 0.00 | 0.00 | 0.00 | 78 | 1009.6 |
| 20260901211510 | 12 | 236 | 0.0 | 3.2 | 0.00 | 0.00 | 0.00 | 77 | 1009.7 |
| 20260901210010 | 12 | 237 | 3.2 | 6.4 | 0.00 | 0.00 | 0.00 | 77 | 1009.9 |
| 20260901204509 | 12 | 236 | 1.6 | 4.8 | 0.00 | 0.00 | 0.00 | 76 | 1009.9 |
| 20260901203010 | 12 | 236 | 1.6 | 4.8 | 0.00 | 0.00 | 0.00 | 74 | 1010.1 |
| 20260901201510 | 13 | 236 | 0.0 | 8.0 | 0.00 | 0.00 | 0.00 | 72 | 1010.1 |
| 20260901200010 | 13 | 238 | 3.2 | 11.3 | 0.00 | 0.00 | 0.00 | 72 | 1010.2 |
| 20260901194509 | 13 | 248 | 3.2 | 12.9 | 0.00 | 0.00 | 0.00 | 71 | 1010.3 |
| 20260901193010 | 13 | 240 | 6.4 | 14.5 | 0.00 | 0.00 | 0.00 | 70 | 1010.5 |
| 20260901191522 | 13 | 281 | 1.6 | 27.4 | 0.00 | 0.00 | 0.00 | 70 | 1010.5 |
| 20260901190009 | 13 | 190 | 4.8 | 25.7 | 0.00 | 0.00 | 0.00 | 70 | 1010.4 |
| 20260901184510 | 14 | 204 | 14.5 | 24.1 | 0.00 | 0.00 | 0.00 | 69 | 1010.1 |
| 20260901183010 | 15 | 226 | 14.5 | 25.7 | 0.00 | 0.00 | 0.00 | 69 | 1009.9 |
| 20260901181508 | 15 | 246 | 6.4 | 22.5 | 0.00 | 0.00 | 0.00 | 68 | 1009.7 |
| 20260901180011 | 16 | 235 | 12.9 | 24.1 | 0.00 | 0.00 | 0.00 | 65 | 1009.5 |
| 20260901174509 | 16 | 238 | 12.9 | 25.7 | 0.00 | 0.00 | 0.00 | 62 | 1009.4 |
| 20260901173009 | 17 | 246 | 8.0 | 25.7 | 0.00 | 0.00 | 0.00 | 60 | 1009.4 |
| 20260901171509 | 18 | 242 | 8.0 | 19.3 | 0.00 | 0.00 | 0.00 | 57 | 1009.2 |
| 20260901170009 | 18 | 238 | 12.9 | 24.1 | 0.00 | 0.00 | 0.00 | 57 | 1009.1 |
| 20260901164509 | 18 | 265 | 16.1 | 27.4 | 0.00 | 0.00 | 0.00 | 55 | 1009.1 |
| 20260901163009 | 18 | 276 | 17.7 | 33.8 | 0.00 | 0.00 | 0.00 | 55 | 1009.0 |
| 20260901161510 | 18 | 226 | 6.4 | 30.6 | 0.00 | 0.00 | 0.00 | 58 | 1008.9 |
| 20260901160014 | 19 | 249 | 14.5 | 37.0 | 0.00 | 0.00 | 0.00 | 56 | 1008.9 |
| 20260901154510 | 19 | 80 | 16.1 | 32.2 | 0.00 | 0.00 | 0.00 | 56 | 1008.6 |
| 20260901153019 | 20 | 215 | 17.7 | 33.8 | 0.00 | 0.00 | 0.00 | 55 | 1008.6 |
| 20260901151509 | 20 | 262 | 19.3 | 30.6 | 0.00 | 0.00 | 0.00 | 55 | 1008.7 |
| 20260901150017 | 20 | 203 | 16.1 | 29.0 | 0.00 | 0.00 | 0.00 | 52 | 1008.4 |
| 20260901144514 | 21 | 245 | 19.3 | 32.2 | 0.00 | 0.00 | 0.00 | 50 | 1008.5 |